When you browse on this site, cookies collect data to enhance your experience and personalize the content and advertising you see.
Visit our Privacy Policy to learn more. By continuing to use the site, you agree to this use of cookies and data.
  • In Spain
  • List of Countries
  • For 7 days
  • Water Temperature
  • Satellite Maps
  • Weather Map
  • Weather Widgets
  • user-avatar
    Login

    Hourly Weather Fier

    Today, 25 June, Tuesday

    Time Temperature Precipitation Wind Pressure Humidity
    00:00 +24°C° 0 mm 2 mps 760 mmHg 83%
    01:00 +23°C° 0 mm 2 mps 759 mmHg 84%
    02:00 +23°C° 0 mm 2 mps 759 mmHg 83%
    03:00 +23°C° 0 mm 2 mps 759 mmHg 81%
    04:00 +22°C° 0 mm 3 mps 759 mmHg 80%
    05:00 +24°C° 0 mm 3 mps 759 mmHg 72%
    06:00 +26°C° 0 mm 3 mps 760 mmHg 64%
    07:00 +27°C° 0 mm 3 mps 760 mmHg 57%
    08:00 +29°C° 0 mm 3 mps 760 mmHg 51%
    09:00 +31°C° 0 mm 3 mps 760 mmHg 45%
    10:00 +34°C° 0 mm 3 mps 761 mmHg 39%
    11:00 +35°C° 0 mm 3 mps 761 mmHg 37%
    12:00 +36°C° 0 mm 3 mps 761 mmHg 35%
    13:00 +37°C° 0 mm 3 mps 761 mmHg 34%
    14:00 +36°C° 0 mm 4 mps 761 mmHg 39%
    15:00 +35°C° 0 mm 5 mps 761 mmHg 44%
    16:00 +34°C° 0 mm 5 mps 760 mmHg 50%
    17:00 +33°C° 0 mm 5 mps 761 mmHg 55%
    18:00 +30°C° 0 mm 5 mps 761 mmHg 60%
    19:00 +29°C° 0 mm 4 mps 762 mmHg 65%
    20:00 +28°C° 0 mm 4 mps 762 mmHg 65%
    21:00 +28°C° 0 mm 3 mps 762 mmHg 65%
    22:00 +27°C° 0 mm 3 mps 762 mmHg 65%
    23:00 +27°C° 0 mm 3 mps 762 mmHg 64%

    Tomorrow, 26 June, Wednesday

    Time Temperature Precipitation Wind Pressure Humidity
    00:00 +26°C° 0 mm 3 mps 762 mmHg 62%
    01:00 +26°C° 0 mm 3 mps 762 mmHg 60%
    02:00 +26°C° 0 mm 3 mps 762 mmHg 61%
    03:00 +25°C° 0 mm 3 mps 762 mmHg 62%
    04:00 +25°C° 0 mm 3 mps 762 mmHg 63%
    05:00 +26°C° 0 mm 3 mps 762 mmHg 60%
    06:00 +28°C° 0 mm 3 mps 762 mmHg 57%
    07:00 +29°C° 0 mm 3 mps 762 mmHg 54%
    08:00 +31°C° 0 mm 3 mps 762 mmHg 49%
    09:00 +34°C° 0 mm 4 mps 762 mmHg 44%
    10:00 +36°C° 0 mm 4 mps 762 mmHg 39%
    11:00 +36°C° 0 mm 4 mps 762 mmHg 39%
    12:00 +37°C° 0 mm 4 mps 762 mmHg 38%
    13:00 +37°C° 0 mm 4 mps 762 mmHg 37%
    14:00 +37°C° 0 mm 4 mps 761 mmHg 39%
    15:00 +36°C° 0 mm 5 mps 761 mmHg 41%
    16:00 +36°C° 0 mm 5 mps 761 mmHg 42%
    17:00 +35°C° 0 mm 4 mps 761 mmHg 46%
    18:00 +33°C° 0 mm 4 mps 761 mmHg 50%
    19:00 +32°C° 0 mm 4 mps 761 mmHg 53%
    20:00 +30°C° 0 mm 3 mps 761 mmHg 54%
    21:00 +29°C° 0 mm 3 mps 761 mmHg 56%
    22:00 +28°C° 0 mm 3 mps 762 mmHg 57%
    23:00 +28°C° 0 mm 3 mps 762 mmHg 58%

    Day after tomorrow, 27 June, Thursday

    Time Temperature Precipitation Wind Pressure Humidity
    00:00 +27°C° 0 mm 3 mps 762 mmHg 59%
    01:00 +27°C° 0 mm 3 mps 762 mmHg 61%
    02:00 +27°C° 0 mm 3 mps 761 mmHg 62%
    03:00 +26°C° 0 mm 3 mps 761 mmHg 63%
    04:00 +26°C° 0 mm 3 mps 761 mmHg 63%
    05:00 +27°C° 0 mm 2 mps 761 mmHg 60%
    06:00 +29°C° 0 mm 2 mps 761 mmHg 57%
    07:00 +30°C° 0 mm 2 mps 761 mmHg 54%
    08:00 +32°C° 0 mm 2 mps 761 mmHg 49%
    09:00 +34°C° 0 mm 2 mps 761 mmHg 45%
    10:00 +35°C° 0 mm 2 mps 760 mmHg 40%
    11:00 +36°C° 0 mm 3 mps 760 mmHg 40%
    12:00 +36°C° 0 mm 4 mps 760 mmHg 40%
    13:00 +36°C° 0 mm 6 mps 760 mmHg 41%
    14:00 +35°C° 0 mm 6 mps 759 mmHg 43%
    15:00 +35°C° 0 mm 6 mps 759 mmHg 46%
    16:00 +34°C° 0 mm 6 mps 758 mmHg 48%
    17:00 +32°C° 0 mm 5 mps 758 mmHg 55%
    18:00 +30°C° 0 mm 3 mps 758 mmHg 61%
    19:00 +28°C° 0 mm 2 mps 758 mmHg 68%
    20:00 +28°C° 0 mm 2 mps 758 mmHg 71%
    21:00 +27°C° 0 mm 2 mps 758 mmHg 73%
    22:00 +26°C° 0 mm 1 mps 758 mmHg 76%
    23:00 +26°C° 0 mm 1 mps 758 mmHg 75%

    28 June, Friday

    Time Temperature Precipitation Wind Pressure Humidity
    00:00 +26°C° 0 mm 1 mps 758 mmHg 74%
    01:00 +25°C° 0 mm 2 mps 758 mmHg 72%
    02:00 +25°C° 0 mm 1 mps 758 mmHg 70%
    03:00 +25°C° 0 mm 1 mps 757 mmHg 67%
    04:00 +25°C° 0 mm 1 mps 757 mmHg 65%
    05:00 +26°C° 0 mm 1 mps 757 mmHg 60%
    06:00 +28°C° 0 mm 1 mps 757 mmHg 55%
    07:00 +30°C° 0 mm 2 mps 757 mmHg 49%
    08:00 +31°C° 0 mm 2 mps 757 mmHg 45%
    09:00 +34°C° 0 mm 3 mps 757 mmHg 41%
    10:00 +36°C° 0 mm 3 mps 757 mmHg 37%
    11:00 +36°C° 0 mm 4 mps 756 mmHg 37%
    12:00 +36°C° 0 mm 4 mps 756 mmHg 38%
    13:00 +37°C° 0 mm 5 mps 756 mmHg 39%
    14:00 +36°C° 0 mm 5 mps 756 mmHg 39%
    15:00 +36°C° 0 mm 6 mps 755 mmHg 40%
    16:00 +35°C° 0 mm 6 mps 755 mmHg 40%
    17:00 +33°C° 0 mm 5 mps 755 mmHg 47%
    18:00 +32°C° 0 mm 4 mps 756 mmHg 53%
    19:00 +29°C° 0 mm 3 mps 756 mmHg 59%
    20:00 +28°C° 0 mm 3 mps 756 mmHg 61%
    21:00 +27°C° 0 mm 3 mps 756 mmHg 62%
    22:00 +26°C° 0 mm 2 mps 757 mmHg 64%
    23:00 +26°C° 0 mm 3 mps 757 mmHg 62%

    29 June, Saturday

    Time Temperature Precipitation Wind Pressure Humidity
    00:00 +26°C° 0 mm 3 mps 757 mmHg 61%
    01:00 +25°C° 0 mm 3 mps 757 mmHg 60%
    02:00 +25°C° 0 mm 3 mps 756 mmHg 60%
    03:00 +23°C° 0 mm 4 mps 756 mmHg 59%
    04:00 +23°C° 0 mm 4 mps 756 mmHg 59%
    05:00 +25°C° 0 mm 4 mps 757 mmHg 56%
    06:00 +26°C° 0 mm 4 mps 757 mmHg 53%
    07:00 +27°C° 0 mm 4 mps 757 mmHg 51%
    08:00 +29°C° 0 mm 3 mps 757 mmHg 44%
    09:00 +31°C° 0 mm 3 mps 757 mmHg 38%
    10:00 +34°C° 0 mm 3 mps 757 mmHg 32%
    11:00 +34°C° 0 mm 3 mps 757 mmHg 32%
    12:00 +35°C° 0 mm 4 mps 757 mmHg 33%
    13:00 +35°C° 0 mm 5 mps 757 mmHg 34%
    14:00 +35°C° 0 mm 5 mps 757 mmHg 35%
    15:00 +34°C° 0 mm 5 mps 757 mmHg 36%
    16:00 +34°C° 0 mm 6 mps 757 mmHg 37%
    17:00 +32°C° 0 mm 6 mps 757 mmHg 44%
    18:00 +29°C° 0 mm 5 mps 757 mmHg 51%
    19:00 +28°C° 0 mm 5 mps 758 mmHg 59%
    20:00 +27°C° 0 mm 4 mps 758 mmHg 61%
    21:00 +26°C° 0 mm 4 mps 758 mmHg 63%
    22:00 +25°C° 0 mm 3 mps 759 mmHg 65%
    23:00 +25°C° 0 mm 3 mps 759 mmHg 62%

    30 June, Sunday

    Time Temperature Precipitation Wind Pressure Humidity
    00:00 +25°C° 0 mm 3 mps 759 mmHg 60%
    01:00 +24°C° 0 mm 3 mps 759 mmHg 58%
    02:00 +24°C° 0 mm 3 mps 759 mmHg 59%
    03:00 +22°C° 0 mm 3 mps 759 mmHg 59%
    04:00 +22°C° 0 mm 3 mps 759 mmHg 60%
    05:00 +24°C° 0 mm 3 mps 759 mmHg 57%
    06:00 +26°C° 0 mm 3 mps 759 mmHg 54%
    07:00 +27°C° 0 mm 3 mps 760 mmHg 51%
    08:00 +29°C° 0 mm 2 mps 760 mmHg 46%
    09:00 +31°C° 0 mm 2 mps 760 mmHg 40%
    10:00 +32°C° 0 mm 2 mps 760 mmHg 35%
    11:00 +34°C° 0 mm 3 mps 760 mmHg 36%
    12:00 +34°C° 0 mm 4 mps 760 mmHg 36%
    13:00 +34°C° 0 mm 5 mps 760 mmHg 37%
    14:00 +33°C° 0 mm 5 mps 760 mmHg 38%
    15:00 +33°C° 0 mm 5 mps 760 mmHg 38%
    16:00 +33°C° 0 mm 5 mps 760 mmHg 39%
    17:00 +30°C° 0 mm 5 mps 760 mmHg 46%
    18:00 +28°C° 0 mm 4 mps 760 mmHg 53%
    19:00 +27°C° 0 mm 3 mps 760 mmHg 60%
    20:00 +26°C° 0 mm 3 mps 761 mmHg 61%
    21:00 +25°C° 0 mm 2 mps 761 mmHg 63%
    22:00 +25°C° 0 mm 2 mps 761 mmHg 65%
    23:00 +24°C° 0 mm 2 mps 761 mmHg 61%
    Show more